 4月11日午後のパスにJA0SUQ/JD1m 斎藤さんがFO-29にCWでQRVしていました。

   JN1GKZ 新井
     jn1gkz@jamsat.or.jp     http://www.din.or.jp/~m-arai/

==============================================================================

  3)FO−20(ふじ2号)のCWテレメトリは3月24日(水)18:07(JST)の
     パスではテレメトリーが単一トーンの連続音から唸りを伴った連続音、さらにゆらぎの
     ある信号になり、いままでより若干信号が弱くなっていました.
---------------------------------------------------------------------------

 ■ 軌道要素1 :出典は「ふじ3号」に同じ. 
  
  FO-20
  1 20480U 90013C   99105.10594327 -.00000058  00000-0 -49987-4 0 01428
  2 20480 099.0320 311.8259 0539859 307.5822 047.7400 12.83250577430249
 
 ■ 軌道要素2 :出典は「ふじ3号」に同じ.  
               
  Satellite: FO-20
  Catalog number: 20480
  Epoch time:      99105.10594327
  Element set:    0142
  Inclination:      099.0320 deg
  RA of node:       311.8259 deg
  Eccentricity:    0.0539859
  Arg of perigee:   307.5822 deg
  Mean anomaly:     047.7400 deg
  Mean motion:   12.83250577 rev/day
  Decay rate:       -5.8e-07 rev/day^2
  Epoch rev:           43024
  Checksum:              296

  ====================    FO-20のQSOの状況 ==========================
   
  久しぶりにFO−20のCWによるQRVの状況がJA6BX局江崎さんが
 [jamsat:bb−4339]に投稿されてましたので転載させて頂きます.

   今日 19:10(JST) に 当局の LOS 直前でしたが、JA0SUQ/JD1 斉藤さんが南鳥島
 から FO-20 に CW で QRV されていました。 

	  Yoshio Esaki
	  esaki@m2.people.or.jp
	  ja6bx@jamsat.or.jp 
	  ja6bx@amsat.org

  =====================================================================

 4)JARL のホームページに新しい運用追加予定が記載されていましたのでご紹介します.
       ( http://www.jarl.or.jp/Japanese/3_Fuji/uy.htm )

        ■ ふじ3号/FO−29 ■  
  
  ふじ3号(JAS−2) 運用予定
   *** 運用日程について ***    
   4月12日 〜 4月27日     アナログ系運用
   ☆4月28日  〜  5月  6日      デジトーカ運用(:FM音声メッセージ送信)
     5月 7日 〜 5月17日     アナログ系運用
   5月17日 〜 5月24日     デジタル系1200bpsメールボックス運用
   5月24日 〜 5月31日     アナログ系運用 

 ★4月6日(火)04時のパスで2bitエラーが発生していることを確認しましたので
   コンピュータのリセット及びプログラムのロード作業を行いますので4月5日(月)
   06時のパスから12日(月)デジタル系1200bpsメールボックス運用でしたが
   予定を変更してアナログ系運用と致します。

  ☆4月28日から5月6日に行うデジトーカ運用の音声送信メッセージは新データUP予定
    ですのでお楽しみ下さい。

     ※運用日程の変更についても詳しく閲覧できるようになっていますので参照下さい.

        ■ ふじ2号/FO−20 ■      
            「ふじ2号」 現況                                                                                               
   JAS-1b/FO-20(ふじ2号)の不具合発生について
    JAS-1b(ふじ2号)のCWテレメトリ信号に,1997年10月12日12時
 (JST)の日本上空通過時,3桁の数字が繰り返されるはずが3個の長音の
  繰り返しとなっているという異常が発見されました。この不具合は次の通過時
  からは回復していましたが13日15時20分の通過時に再び観測されました。
  衛星のアナログ系中継モード動作は異常が無く,正常時のテレメトリ内容からは
  衛星の動作に異常は認められません。従って,直ちに衛星のミッションに影響す
  ることは無いと予想されますので,当面はアナログ系中継モードを継続します。
  衛星は既に打ち上げてから7年8ヶ月を経ておりますので,今後は監視を強化す
  る予定です。アマチュア各位のレポートをお待ちします.   
  
  以上  http://www.jarl.or.jp/Japanese/3_Fuji/fuji.htm
                                           
   =============   JAS-2 (ふじ3号)と現在までの情報   ===========
  
  A.電話によるふじ3号の運用情報
      社団法人日本アマチュア連盟によるサービス
           TEL .   03− 3942 − 1000
  B.アマチュア無線FAXサービス
      JARLによるふじ3号の軌道情報(オービットカレンダー)
         FAX No.  03− 3233 −0055
  C.WWWブラウザで情報を簡単に見れる人のためにJAS−2
     ふじ3号の衛星としての運用されるまでの名前)の概要、打ち上げ
     までの状況、運用中における状況を説明したホームページを紹介し
     ておきます.
     社団法人日本アマチュア無線連盟(JARL)のホームページ

          http://www.jarl.or.jp/Japanese/3_Fuji
 
     宇宙開発事業団(NASDA)ホームページ 
          http://www.nasda.go.jp/
         打上げ衛星 :地球観測プラットフォーム技術衛星(ADEOS) 
                       アマチュア衛星3号(JAS-2)
          http://yyy.tksc.nasda.go.jp/Home/Press/Press-j/jas-2_j.html        

  D.JAMSATによる軌道情報の活用
        JAMSATのホームページまたはjamsat−kepsの軌道要素より
      衛星の軌道情報を得る.
     JAMSATホームページ
               URL    http://www.jamsat.or.jp
       上記ホームページでは各地で行われるアマチュア通信衛星に関する
      ミューティングのお知らせや世界のアマチュア衛星に関する情報が
      満載されています.
   
 =========================================================================
       JAMSATのメンバーのご協力によりJH6MME(高山 秀造)が
    執筆・編集を担当しております.ご指摘の意見、疑問やこのようにしたら
    というアイデアがありましたら小さなことでもかまいませんので気軽に下
    記アドレスまでご連絡ください.jamsat−newsからjas2
    infoへの転載をJH4PHW局坂井さんに担当して頂いております.
                    E-mail : jh6mme@jamsat.or.jp : jh4phw@jamsat.or.jp
 ===============================   END  ===============================